Location: Unspecified
(0.0000°N, 0.0000°E)
Time: 04:52:06
(UTC+00:00)

CANX-2 - Pass Details

Date: 21 May 2026
Orbit: 542 x 558 km, 97.9° (Epoch: 11 June)

Event Time Altitude Azimuth Distance (km) Brightness Sun altitude
Rises 03:13:42 0° 42° (NE) 2,687 ? -37.8°
Reaches altitude 10° 03:16:30 10° 64° (ENE) 1,801 ? -37.1°
Enters shadow 03:16:47 11° 68° (ENE) 1,730 ? -37.1°
